RYR290W LBSF-LIBD

Flight info

Callsign RYR290W
Flight time 1h 1m
Altitude 38000
Route NAPET T214 SIN DCT MAVAR DCT ODRAS DCT TRN DCT RODON DCT BALEM DCT CRAYE DCT ENOXA
Aircraft B738/M-SDE2E3FGHIRWXY/LB1

Departure

Time 2026-05-05 14:34
Airport Sofia Airport (LBSF)

Arrival

Time 2026-05-05 15:36
Airport Bari Karol Wojtyła International Airport (LIBD)
Time Latitude Longitude Altitude Speed Heading
2026-05-05 14:11 42.68991 23.40935 1752 ft 0 kts 162°
2026-05-05 14:28 42.68985 23.40938 1746 ft 2 kts 162°
2026-05-05 14:29 42.68956 23.40952 1743 ft 7 kts 156°
2026-05-05 14:29 42.68939 23.41014 1752 ft 9 kts 73°
2026-05-05 14:29 42.68960 23.41110 1747 ft 12 kts 73°
2026-05-05 14:29 42.69005 23.41217 1748 ft 13 kts 47°
2026-05-05 14:30 42.69091 23.41212 1744 ft 13 kts 341°
2026-05-05 14:30 42.69175 23.41174 1746 ft 13 kts 341°
2026-05-05 14:30 42.69259 23.41162 1745 ft 12 kts 11°
2026-05-05 14:30 42.69343 23.41185 1750 ft 13 kts 12°
2026-05-05 14:31 42.69440 23.41210 1746 ft 15 kts 10°
2026-05-05 14:31 42.69484 23.41324 1749 ft 16 kts 95°
2026-05-05 14:31 42.69474 23.41482 1750 ft 18 kts 94°
2026-05-05 14:31 42.69462 23.41668 1752 ft 21 kts 94°
2026-05-05 14:32 42.69450 23.41873 1743 ft 23 kts 95°
2026-05-05 14:32 42.69437 23.42101 1749 ft 25 kts 94°
2026-05-05 14:32 42.69424 23.42334 1752 ft 24 kts 94°
2026-05-05 14:32 42.69411 23.42553 1752 ft 23 kts 95°
2026-05-05 14:33 42.69413 23.42735 1745 ft 16 kts 54°
2026-05-05 14:33 42.69502 23.42719 1752 ft 15 kts 304°
2026-05-05 14:33 42.69557 23.42601 1750 ft 14 kts 302°
2026-05-05 14:33 42.69605 23.42485 1751 ft 17 kts 274°
2026-05-05 14:34 42.69628 23.42095 1750 ft 77 kts 275°
2026-05-05 14:34 42.69691 23.41055 1751 ft 142 kts 275°
2026-05-05 14:34 42.69774 23.39507 1991 ft 176 kts 275°
2026-05-05 14:34 42.69863 23.37803 2790 ft 179 kts 279°
2026-05-05 14:35 42.70387 23.36306 3467 ft 183 kts 323°
2026-05-05 14:35 42.71534 23.35669 4115 ft 176 kts 351°
2026-05-05 14:35 42.72617 23.34936 4886 ft 182 kts 314°
2026-05-05 14:35 42.73296 23.33390 5356 ft 203 kts 302°
2026-05-05 14:36 42.74102 23.31683 5541 ft 227 kts 306°
2026-05-05 14:36 42.75062 23.29838 5737 ft 247 kts 307°
2026-05-05 14:36 42.75906 23.27704 5976 ft 272 kts 282°
2026-05-05 14:36 42.75730 23.25110 6518 ft 284 kts 245°
2026-05-05 14:37 42.74539 23.23014 7436 ft 282 kts 221°
2026-05-05 14:37 42.72985 23.21353 8216 ft 285 kts 216°
2026-05-05 14:37 42.71351 23.19794 9051 ft 288 kts 216°
2026-05-05 14:37 42.69695 23.18246 9893 ft 290 kts 216°
2026-05-05 14:38 42.68016 23.16671 10492 ft 301 kts 216°
2026-05-05 14:38 42.66226 23.14973 10674 ft 326 kts 216°
2026-05-05 14:38 42.64324 23.13154 11104 ft 340 kts 216°
2026-05-05 14:38 42.62375 23.11281 11818 ft 344 kts 216°
2026-05-05 14:39 42.60417 23.09393 12609 ft 348 kts 217°
2026-05-05 14:39 42.58436 23.07478 13350 ft 353 kts 216°
2026-05-05 14:39 42.56425 23.05531 14092 ft 357 kts 217°
2026-05-05 14:39 42.54391 23.03559 14804 ft 361 kts 217°
2026-05-05 14:40 42.52332 23.01564 15499 ft 366 kts 217°
2026-05-05 14:40 42.50245 22.99542 16170 ft 371 kts 217°
2026-05-05 14:40 42.48132 22.97497 16869 ft 376 kts 217°
2026-05-05 14:40 42.45986 22.95421 17535 ft 382 kts 217°
2026-05-05 14:41 42.43813 22.93321 18206 ft 387 kts 217°
2026-05-05 14:41 42.41639 22.91222 18796 ft 392 kts 217°
2026-05-05 14:41 42.39407 22.89068 19419 ft 395 kts 217°
2026-05-05 14:41 42.37158 22.86901 20033 ft 399 kts 218°
2026-05-05 14:42 42.34889 22.84716 20617 ft 403 kts 218°
2026-05-05 14:42 42.32590 22.82503 21134 ft 409 kts 218°
2026-05-05 14:42 42.30267 22.80271 21779 ft 410 kts 218°
2026-05-05 14:42 42.27935 22.78031 22396 ft 413 kts 218°
2026-05-05 14:43 42.25581 22.75772 22959 ft 417 kts 219°
2026-05-05 14:43 42.23423 22.73175 23498 ft 415 kts 233°
2026-05-05 14:43 42.21821 22.69968 23987 ft 411 kts 247°
2026-05-05 14:43 42.20360 22.66647 24499 ft 417 kts 237°
2026-05-05 14:44 42.18307 22.63833 24935 ft 427 kts 221°
2026-05-05 14:44 42.15776 22.61700 25443 ft 434 kts 208°
2026-05-05 14:44 42.12981 22.60111 25927 ft 437 kts 205°
2026-05-05 14:44 42.10259 22.58314 26280 ft 436 kts 218°
2026-05-05 14:45 42.08076 22.55550 26690 ft 428 kts 237°
2026-05-05 14:45 42.06579 22.52144 27232 ft 420 kts 252°
2026-05-05 14:45 42.05810 22.48399 27652 ft 415 kts 264°
2026-05-05 14:45 42.05360 22.44557 28076 ft 416 kts 266°
2026-05-05 14:46 42.04970 22.40693 28500 ft 418 kts 266°
2026-05-05 14:46 42.04593 22.36811 28944 ft 419 kts 266°
2026-05-05 14:46 42.04208 22.32918 29376 ft 421 kts 266°
2026-05-05 14:46 42.03808 22.29002 29775 ft 423 kts 266°
2026-05-05 14:47 42.03395 22.25077 30212 ft 424 kts 265°
2026-05-05 14:47 42.03109 22.22418 30440 ft 425 kts 265°
2026-05-05 14:47 42.02679 22.18476 30731 ft 427 kts 265°
2026-05-05 14:47 42.02248 22.14569 31029 ft 429 kts 265°
2026-05-05 14:48 42.01801 22.10548 31398 ft 428 kts 265°
2026-05-05 14:48 42.01365 22.06653 31866 ft 426 kts 265°
2026-05-05 14:48 42.00918 22.02677 32341 ft 423 kts 265°
2026-05-05 14:48 42.00484 21.98828 32755 ft 422 kts 265°
2026-05-05 14:49 42.00040 21.94885 33133 ft 421 kts 265°
2026-05-05 14:49 41.99606 21.91045 33513 ft 420 kts 266°
2026-05-05 14:49 41.99162 21.87125 33899 ft 419 kts 266°
2026-05-05 14:49 41.98728 21.83313 34251 ft 417 kts 266°
2026-05-05 14:50 41.98284 21.79414 34573 ft 416 kts 266°
2026-05-05 14:50 41.97845 21.75581 34878 ft 415 kts 266°
2026-05-05 14:50 41.97405 21.71745 35191 ft 414 kts 265°
2026-05-05 14:50 41.96966 21.67931 35503 ft 412 kts 266°
2026-05-05 14:51 41.96527 21.64128 35789 ft 412 kts 265°
2026-05-05 14:51 41.96093 21.60372 36058 ft 411 kts 265°
2026-05-05 14:51 41.95654 21.56592 36378 ft 410 kts 265°
2026-05-05 14:51 41.95213 21.52808 36673 ft 409 kts 265°
2026-05-05 14:52 41.94773 21.49037 36951 ft 408 kts 265°
2026-05-05 14:52 41.94332 21.45274 37203 ft 408 kts 265°
2026-05-05 14:52 41.93890 21.41509 37418 ft 408 kts 265°
2026-05-05 14:52 41.93447 21.37746 37657 ft 408 kts 265°
2026-05-05 14:53 41.93003 21.33993 37973 ft 406 kts 265°
2026-05-05 14:53 41.92559 21.30236 37973 ft 409 kts 265°
2026-05-05 14:53 41.91660 21.22688 38005 ft 409 kts 265°
2026-05-05 14:54 41.90762 21.15206 38027 ft 402 kts 265°
2026-05-05 14:54 41.89871 21.07807 38032 ft 401 kts 265°
2026-05-05 14:55 41.88979 21.00424 38027 ft 400 kts 265°
2026-05-05 14:55 41.88083 20.93058 38030 ft 399 kts 265°
2026-05-05 14:56 41.87180 20.85669 38048 ft 403 kts 265°
2026-05-05 14:56 41.86265 20.78230 38053 ft 406 kts 265°
2026-05-05 14:57 41.85337 20.70735 38048 ft 407 kts 265°
2026-05-05 14:57 41.84410 20.63308 38050 ft 401 kts 265°
2026-05-05 14:58 41.83491 20.55974 38052 ft 397 kts 265°
2026-05-05 14:58 41.82576 20.48694 38060 ft 395 kts 264°
2026-05-05 14:59 41.81660 20.41452 38075 ft 393 kts 264°
2026-05-05 14:59 41.80742 20.34219 38078 ft 394 kts 264°
2026-05-05 15:00 41.79970 20.28168 38089 ft 399 kts 264°
2026-05-05 15:00 41.78874 20.19627 38065 ft 399 kts 264°
2026-05-05 15:01 41.77931 20.12334 38070 ft 397 kts 264°
2026-05-05 15:01 41.76988 20.05073 38082 ft 395 kts 264°
2026-05-05 15:02 41.76041 19.97812 38088 ft 396 kts 264°
2026-05-05 15:02 41.75089 19.90550 38083 ft 396 kts 264°
2026-05-05 15:03 41.74132 19.83297 38100 ft 395 kts 264°
2026-05-05 15:03 41.73173 19.76056 38070 ft 395 kts 264°
2026-05-05 15:04 41.72212 19.68831 38096 ft 394 kts 264°
2026-05-05 15:04 41.71247 19.61620 38103 ft 394 kts 264°
2026-05-05 15:05 41.69791 19.50810 38094 ft 393 kts 264°
2026-05-05 15:06 41.68816 19.43614 38086 ft 394 kts 264°
2026-05-05 15:06 41.67834 19.36405 38085 ft 393 kts 264°
2026-05-05 15:07 41.66850 19.29212 38086 ft 393 kts 264°
2026-05-05 15:07 41.65863 19.22031 38088 ft 393 kts 264°
2026-05-05 15:08 41.64872 19.14858 38082 ft 392 kts 263°
2026-05-05 15:08 41.63884 19.07740 38086 ft 392 kts 264°
2026-05-05 15:09 41.62880 19.00543 38082 ft 391 kts 263°
2026-05-05 15:09 41.61886 18.93449 38084 ft 391 kts 263°
2026-05-05 15:10 41.60869 18.86322 38006 ft 391 kts 261°
2026-05-05 15:10 41.60077 18.82852 37767 ft 388 kts 256°
2026-05-05 15:10 41.59167 18.79429 37210 ft 386 kts 255°
2026-05-05 15:10 41.58263 18.76102 36584 ft 387 kts 255°
2026-05-05 15:11 41.57344 18.72722 36037 ft 385 kts 255°
2026-05-05 15:11 41.56437 18.69375 35611 ft 382 kts 256°
2026-05-05 15:11 41.55541 18.66041 35203 ft 382 kts 256°
2026-05-05 15:11 41.54646 18.62690 34807 ft 385 kts 256°
2026-05-05 15:12 41.53742 18.59297 34414 ft 388 kts 256°
2026-05-05 15:12 41.52839 18.55904 33999 ft 388 kts 256°
2026-05-05 15:12 41.51939 18.52531 33555 ft 388 kts 256°
2026-05-05 15:12 41.51027 18.49107 33148 ft 391 kts 255°
2026-05-05 15:13 41.50114 18.45688 32743 ft 391 kts 255°
2026-05-05 15:13 41.49202 18.42282 32313 ft 389 kts 255°
2026-05-05 15:13 41.48297 18.38905 31918 ft 387 kts 255°
2026-05-05 15:13 41.47392 18.35533 31515 ft 385 kts 255°
2026-05-05 15:14 41.46490 18.32175 31118 ft 384 kts 255°
2026-05-05 15:14 41.45589 18.28824 30724 ft 384 kts 255°
2026-05-05 15:14 41.44689 18.25478 30332 ft 383 kts 255°
2026-05-05 15:14 41.43789 18.22141 29891 ft 381 kts 255°
2026-05-05 15:15 41.42897 18.18840 29512 ft 376 kts 255°
2026-05-05 15:15 41.42013 18.15573 29137 ft 375 kts 255°
2026-05-05 15:15 41.41127 18.12296 28731 ft 376 kts 255°
2026-05-05 15:15 41.40242 18.09026 28294 ft 374 kts 255°
2026-05-05 15:16 41.39363 18.05791 27881 ft 370 kts 254°
2026-05-05 15:16 41.38490 18.02578 27471 ft 367 kts 254°
2026-05-05 15:16 41.37622 17.99392 27062 ft 365 kts 254°
2026-05-05 15:16 41.36761 17.96231 26658 ft 363 kts 254°
2026-05-05 15:17 41.35902 17.93077 26251 ft 361 kts 254°
2026-05-05 15:17 41.35045 17.89937 25858 ft 361 kts 253°
2026-05-05 15:17 41.34186 17.86795 25459 ft 361 kts 253°
2026-05-05 15:17 41.33327 17.83655 25058 ft 361 kts 253°
2026-05-05 15:18 41.32472 17.80536 24673 ft 359 kts 253°
2026-05-05 15:18 41.31625 17.77451 24251 ft 358 kts 253°
2026-05-05 15:18 41.30759 17.74300 23838 ft 358 kts 253°
2026-05-05 15:18 41.29905 17.71194 23399 ft 357 kts 252°
2026-05-05 15:19 41.29053 17.68105 22957 ft 355 kts 252°
2026-05-05 15:19 41.28205 17.65030 22547 ft 353 kts 252°
2026-05-05 15:19 41.27373 17.62021 22154 ft 351 kts 252°
2026-05-05 15:19 41.26535 17.58988 21763 ft 349 kts 252°
2026-05-05 15:20 41.25699 17.55971 21379 ft 347 kts 252°
2026-05-05 15:20 41.24868 17.52970 20992 ft 346 kts 252°
2026-05-05 15:20 41.24037 17.49977 20616 ft 345 kts 252°
2026-05-05 15:20 41.23209 17.46994 20237 ft 344 kts 252°
2026-05-05 15:21 41.22381 17.44016 19864 ft 344 kts 252°
2026-05-05 15:21 41.21552 17.41040 19485 ft 343 kts 252°
2026-05-05 15:21 41.20727 17.38080 19115 ft 341 kts 252°
2026-05-05 15:21 41.19903 17.35129 18734 ft 340 kts 252°
2026-05-05 15:22 41.19081 17.32188 18355 ft 340 kts 251°
2026-05-05 15:22 41.18260 17.29253 17928 ft 339 kts 251°
2026-05-05 15:22 41.17441 17.26329 17540 ft 337 kts 251°
2026-05-05 15:22 41.16625 17.23421 17163 ft 336 kts 251°
2026-05-05 15:23 41.15829 17.20584 16805 ft 334 kts 251°
2026-05-05 15:23 41.15014 17.17685 16452 ft 331 kts 251°
2026-05-05 15:23 41.14212 17.14837 16077 ft 328 kts 251°
2026-05-05 15:23 41.13417 17.12015 15720 ft 325 kts 251°
2026-05-05 15:24 41.12630 17.09223 15376 ft 322 kts 251°
2026-05-05 15:24 41.11849 17.06457 15031 ft 319 kts 251°
2026-05-05 15:24 41.11075 17.03719 14692 ft 317 kts 251°
2026-05-05 15:24 41.10302 17.00984 14354 ft 316 kts 251°
2026-05-05 15:25 41.09531 16.98261 14016 ft 315 kts 251°
2026-05-05 15:25 41.08762 16.95550 13640 ft 313 kts 251°
2026-05-05 15:25 41.07997 16.92854 13262 ft 312 kts 251°
2026-05-05 15:25 41.07236 16.90176 12902 ft 309 kts 251°
2026-05-05 15:26 41.06480 16.87519 12557 ft 307 kts 250°
2026-05-05 15:26 41.05730 16.84883 12223 ft 306 kts 250°
2026-05-05 15:26 41.04979 16.82249 11882 ft 305 kts 251°
2026-05-05 15:26 41.04230 16.79621 11546 ft 304 kts 250°
2026-05-05 15:27 41.03482 16.77001 11171 ft 305 kts 250°
2026-05-05 15:27 41.02734 16.74383 10805 ft 301 kts 250°
2026-05-05 15:27 41.02006 16.71842 10461 ft 290 kts 250°
2026-05-05 15:27 41.01303 16.69386 10188 ft 278 kts 250°
2026-05-05 15:28 41.00636 16.67062 10054 ft 263 kts 250°
2026-05-05 15:28 40.99998 16.64834 9722 ft 255 kts 250°
2026-05-05 15:28 40.99380 16.62680 9550 ft 243 kts 250°
2026-05-05 15:28 40.98792 16.60634 9208 ft 238 kts 250°
2026-05-05 15:29 40.98207 16.58603 8767 ft 234 kts 250°
2026-05-05 15:29 40.97634 16.56614 8302 ft 228 kts 250°
2026-05-05 15:29 40.97109 16.54660 7864 ft 222 kts 259°
2026-05-05 15:29 40.97193 16.52669 7423 ft 216 kts 288°
2026-05-05 15:30 40.97958 16.50993 7016 ft 214 kts 311°
2026-05-05 15:30 40.99171 16.49882 6604 ft 213 kts 332°
2026-05-05 15:30 41.00076 16.49391 6351 ft 211 kts 336°
2026-05-05 15:30 41.01897 16.48499 5809 ft 207 kts 336°
2026-05-05 15:31 41.03222 16.47854 5407 ft 205 kts 337°
2026-05-05 15:31 41.04628 16.47625 4978 ft 209 kts 10°
2026-05-05 15:31 41.05867 16.48553 4581 ft 208 kts 51°
2026-05-05 15:31 41.06550 16.50216 4216 ft 205 kts 68°
2026-05-05 15:32 41.07076 16.51953 3986 ft 198 kts 70°
2026-05-05 15:32 41.07577 16.53715 3705 ft 207 kts 71°
2026-05-05 15:32 41.08071 16.55483 3485 ft 205 kts 71°
2026-05-05 15:32 41.08575 16.57285 3049 ft 213 kts 71°
2026-05-05 15:33 41.09094 16.59141 2625 ft 215 kts 71°
2026-05-05 15:33 41.09612 16.60990 2300 ft 211 kts 71°
2026-05-05 15:33 41.10110 16.62758 2036 ft 198 kts 71°
2026-05-05 15:33 41.10576 16.64418 1763 ft 187 kts 71°
2026-05-05 15:34 41.10867 16.65460 1623 ft 177 kts 71°
2026-05-05 15:34 41.11286 16.66950 1440 ft 162 kts 71°
2026-05-05 15:34 41.11662 16.68307 1172 ft 155 kts 71°
2026-05-05 15:34 41.12046 16.69665 943 ft 157 kts 70°
2026-05-05 15:35 41.12413 16.70971 735 ft 152 kts 70°
2026-05-05 15:35 41.12777 16.72267 570 ft 149 kts 69°
2026-05-05 15:35 41.13259 16.73971 303 ft 144 kts 69°
2026-05-05 15:35 41.13493 16.74793 196 ft 143 kts 68°
2026-05-05 15:36 41.13799 16.75872 158 ft 96 kts 69°
2026-05-05 15:36 41.13960 16.76435 139 ft 41 kts 69°
2026-05-05 15:36 41.13997 16.76638 134 ft 16 kts 101°
2026-05-05 15:36 41.13944 16.76713 133 ft 9 kts 185°
2026-05-05 15:37 41.13892 16.76671 133 ft 9 kts 215°
2026-05-05 15:37 41.13842 16.76627 135 ft 9 kts 216°
2026-05-05 15:37 41.13805 16.76568 138 ft 8 kts 231°
2026-05-05 15:37 41.13750 16.76556 138 ft 9 kts 163°
2026-05-05 15:38 41.13683 16.76540 139 ft 11 kts 205°
2026-05-05 15:38 41.13638 16.76468 143 ft 10 kts 250°
2026-05-05 15:38 41.13613 16.76380 147 ft 10 kts 249°
2026-05-05 15:38 41.13589 16.76294 150 ft 10 kts 249°
2026-05-05 15:39 41.13566 16.76213 152 ft 7 kts 253°
2026-05-05 15:39 41.13591 16.76171 152 ft 6 kts 337°
2026-05-05 15:39 41.13609 16.76165 152 ft 1 kts
2026-05-05 15:39 41.13616 16.76169 152 ft 0 kts 22°